Weather History for KLAX - March, 2014

Change the Weather History Date:

Tuesday, March 18, 2014

  Actual Average Record
Temperature  
Mean Temperature 64 °F 58 °F  
Max Temperature 70 °F 64 °F 79 °F (1988)
Min Temperature 58 °F 52 °F 41 °F (1963)
Degree Days  
Heating Degree Days 1 7  
Month to date heating degree days 44 129  
Since 1 July heating degree days 599 1058  
Cooling Degree Days 0 0  
Month to date cooling degree days 19 0  
Year to date cooling degree days 35 9  
Growing Degree Days 14 (Base 50)    
Moisture  
Dew Point 52 °F    
Average Humidity 66    
Maximum Humidity 80    
Minimum Humidity 51    
Precipitation  
Precipitation 0.00 in 0.05 in 0.68 in (1991)
Month to date precipitation 0.35 1.29  
Year to date precipitation 3.14 7.25  
Since 1 July precipitation 4.18  
Sea Level Pressure  
Sea Level Pressure 29.85 in    
Wind  
Wind Speed 8 mph (East)    
Max Wind Speed 16 mph    
Max Gust Speed 21 mph    
Visibility 10 miles    
Events Fog    
T = Trace of Precipitation, MM = Missing Value Source: NWS Daily Summary

Daily Weather History Graph

Daily Weather History Graph

Search for Another Location

Airport or City:

Trip Planner

Search our weather history database for the weather conditions in past years. The results will help you decide how hot, cold, wet, or windy it might be!

Date:

Astronomy

Mar. 18, 2014 Rise Set
Actual Time 6:59 AM PDT 7:03 PM PDT
Civil Twilight 6:34 AM PDT 7:28 PM PDT
Nautical Twilight 6:05 AM PDT 7:57 PM PDT
Astronomical Twilight 5:36 AM PDT 8:27 PM PDT
Moon 9:18 PM PDT (3/18) 7:58 AM PDT (3/18)
Length of Visible Light 12h 53m
Length of Day
12h 03m
Waning Gibbous, 96% of the Moon is Illuminated
Mar 18
Waning Gibbous
Mar 23
Last Quarter
Mar 30
New
Apr 7
First Quarter
Apr 15
Full

Hourly Weather History & Observations

Time (PDT) Temp. Dew Point Humidity Pressure Visibility Wind Dir Wind Speed Gust Speed Precip Events Conditions
12:53 AM 60.1 °F 52.0 °F 75% 29.81 in 10.0 mi ENE 8.1 mph - N/A   Partly Cloudy
1:53 AM 57.9 °F 52.0 °F 81% 29.82 in 10.0 mi East 9.2 mph - N/A   Partly Cloudy
2:30 AM 57.2 °F 51.8 °F 82% 29.82 in 10.0 mi East 8.1 mph - N/A   Mostly Cloudy
2:53 AM 59.0 °F 52.0 °F 78% 29.82 in 10.0 mi ESE 9.2 mph - N/A   Mostly Cloudy
3:53 AM 59.0 °F 51.1 °F 75% 29.81 in 10.0 mi East 8.1 mph - N/A   Mostly Cloudy
4:24 AM 59.0 °F 51.8 °F 77% 29.82 in 10.0 mi East 8.1 mph - N/A   Mostly Cloudy
4:53 AM 59.0 °F 51.1 °F 75% 29.82 in 10.0 mi East 4.6 mph - N/A   Mostly Cloudy
5:51 AM 57.2 °F 51.8 °F 82% 29.82 in 10.0 mi NE 5.8 mph - N/A   Scattered Clouds
5:53 AM 57.9 °F 51.1 °F 78% 29.82 in 10.0 mi NE 5.8 mph - N/A   Scattered Clouds
6:53 AM 59.0 °F 51.1 °F 75% 29.83 in 9.0 mi NE 6.9 mph - N/A Fog Shallow Fog
7:53 AM 60.1 °F 51.1 °F 72% 29.85 in 8.0 mi East 4.6 mph - N/A Fog Patches of Fog
8:53 AM 62.1 °F 50.0 °F 65% 29.86 in 10.0 mi East 8.1 mph - N/A   Mostly Cloudy
9:53 AM 64.0 °F 50.0 °F 60% 29.88 in 10.0 mi Calm Calm - N/A   Scattered Clouds
10:53 AM 66.9 °F 50.0 °F 54% 29.88 in 10.0 mi Variable 4.6 mph - N/A   Scattered Clouds
11:53 AM 69.1 °F 50.0 °F 51% 29.88 in 10.0 mi Variable 5.8 mph - N/A   Partly Cloudy
12:53 PM 69.1 °F 52.0 °F 54% 29.86 in 10.0 mi West 10.4 mph - N/A   Partly Cloudy
1:53 PM 69.1 °F 52.0 °F 54% 29.85 in 10.0 mi West 11.5 mph - N/A   Partly Cloudy
2:53 PM 66.0 °F 52.0 °F 60% 29.85 in 10.0 mi West 15.0 mph - N/A   Partly Cloudy
3:53 PM 66.0 °F 52.0 °F 60% 29.84 in 10.0 mi West 15.0 mph - N/A   Partly Cloudy
4:53 PM 64.9 °F 53.1 °F 65% 29.84 in 10.0 mi West 15.0 mph - N/A   Partly Cloudy
5:53 PM 64.0 °F 53.1 °F 67% 29.84 in 10.0 mi West 12.7 mph - N/A   Partly Cloudy
6:53 PM 63.0 °F 52.0 °F 67% 29.85 in 10.0 mi West 10.4 mph - N/A   Partly Cloudy
7:53 PM 62.1 °F 53.1 °F 72% 29.86 in 10.0 mi WSW 9.2 mph - N/A   Clear
8:53 PM 62.1 °F 54.0 °F 75% 29.88 in 10.0 mi South 6.9 mph - N/A   Clear
9:53 PM 62.1 °F 53.1 °F 72% 29.91 in 10.0 mi SSE 5.8 mph - N/A   Clear
10:53 PM 62.1 °F 51.1 °F 67% 29.92 in 10.0 mi East 4.6 mph - N/A   Clear
11:53 PM 61.0 °F 54.0 °F 78% 29.94 in 10.0 mi East 5.8 mph - N/A   Partly Cloudy